Location: Kimberly
(42.5380°N, 114.3640°W)
Time: 12:00:11
(UTC-06:00)

ISS - Visible Passes

Search period start: 26 July 2021 00:00
Search period end: 05 August 2021 00:00
Orbit: 419 x 421 km, 51.6° (Epoch: 26 July)

Date Brightness Start Highest point End Pass type
(mag) Time Alt. Az. Time Alt. Az. Time Alt. Az.
26 Jul -1.3 00:29:30 10° WNW 00:30:39 19° WNW 00:30:39 19° WNW visible
26 Jul -1.6 22:05:37 10° NW 22:08:20 22° NNE 22:11:02 10° ENE visible
26 Jul -3.1 23:42:10 10° NW 23:44:51 53° NW 23:44:51 53° NW visible
27 Jul -3.2 22:54:53 10° NW 22:58:12 52° NNE 22:59:06 38° E visible
28 Jul -2.6 22:07:38 10° NW 22:10:47 36° NNE 22:13:24 13° E visible
28 Jul -1.9 23:44:30 10° WNW 23:46:21 25° W 23:46:21 25° W visible
29 Jul -3.7 22:57:01 10° WNW 23:00:21 59° SW 23:00:41 55° S visible
30 Jul -3.8 22:09:39 10° NW 22:13:03 83° NNE 22:15:04 22° ESE visible
30 Jul -0.8 23:47:54 10° WSW 23:48:02 10° WSW 23:48:02 10° WSW visible
31 Jul -3.2 21:22:22 10° NW 21:25:41 53° NNE 21:28:59 10° ESE visible
31 Jul -1.9 22:59:41 10° W 23:02:16 21° SW 23:02:28 21° SW visible
01 Aug -2.6 22:11:59 10° WNW 22:15:05 34° SW 22:16:58 19° SSE visible
02 Aug -3.4 21:24:30 10° WNW 21:27:49 58° SW 21:31:07 10° SE visible
03 Aug -1.1 22:15:25 10° WSW 22:16:52 12° SW 22:18:19 10° SSW visible
04 Aug -1.6 21:27:09 10° W 21:29:43 20° SW 21:32:16 10° S visible
